Location: *
(46.1866°S, 178.5290°W)
Time: 15:29:07
(UTC+00:00)

Cosmos 1461 - Pass Details

Date: 04 October 2021
Orbit: 520 x 642 km, 65.0° (Epoch: 24 October)

Event Time Altitude Azimuth Distance (km) Brightness Sun altitude
Rises 09:33:39 0° 266° (W) 2,789 7.0 -31.8°
Reaches altitude 10° 09:36:54 10° 240° (WSW) 1,926 6.3 -32.1°
Maximum altitude 09:39:09 14° 208° (SSW) 1,715 6.1 -32.4°
Drops below altitude 10° 09:41:27 10° 177° (S) 1,974 6.2 -32.6°
Sets 09:44:52 0° 151° (SSE) 2,913 6.8 -33.0°
